Location: Bonny Doon Airfield
(37.0704°N, 122.1252°W)
Time: 20:24:08
(UTC-07:00)

Vanguard 1 - Visible Passes

Search period start: 23 June 2018 00:00
Search period end: 03 July 2018 00:00
Orbit: 650 x 3833 km, 34.3° (Epoch: 23 June)

Date Brightness Start Highest point End Pass type
(mag) Time Alt. Az. Time Alt. Az. Time Alt. Az.
24 Jun 12.4 03:38:54 10° SE 03:40:50 11° SE 03:42:59 10° ESE visible
25 Jun 12.0 03:56:53 11° S 04:00:59 18° SE 04:07:05 10° E visible
26 Jun 11.7 04:16:42 14° S 04:21:15 26° SE 04:29:32 10° E visible
27 Jun 11.6 04:36:29 14° SSW 04:41:39 36° SE 04:51:29 10° E visible
28 Jun 11.3 04:56:17 12° SW 05:02:14 46° SSE 05:13:14 10° E visible
29 Jun 11.9 03:03:21 14° SE 03:03:56 14° SE 03:07:32 10° ESE visible
29 Jun 11.1 05:16:27 10° SW 05:22:58 57° SSE 05:34:53 10° E visible
30 Jun 11.4 03:23:07 21° SSE 03:24:16 22° SE 03:30:06 10° E visible
01 Jul 10.9 03:42:52 26° S 03:44:42 31° SE 03:51:59 10° E visible
02 Jul 10.7 04:02:37 27° SSW 04:05:17 42° SSE 04:13:35 10° E visible
